Location: Killam
(52.7910°N, 111.8608°W)
Time: 05:55:03
(UTC+00:00)

A-11 Canister half - Pass Details

Date: 16 February 2026
Orbit: 1524 x 1683 km, 47.3° (Epoch: 13 March)

Event Time Altitude Azimuth Distance (km) Brightness Sun altitude
Rises 04:06:19 0° 270° (W) 4,680 12.5 -31.3°
Reaches altitude 10° 04:09:23 10° 267° (W) 3,693 11.7 -31.7°
Maximum altitude 04:18:27 61° 190° (S) 1,708 9.0 -32.9°
Enters shadow 04:19:02 60° 174° (S) 1,722 9.0 -33.0°
Drops below altitude 10° 04:27:37 10° 114° (ESE) 3,733 - -34.2°
Sets 04:30:44 0° 111° (ESE) 4,733 - -34.6°
